Location: Seasalter
(51.3333°N, 1.0167°E)
Time: 04:08:57
(UTC+00:00)

ATLAS 5 CENTAUR R/B - Pass Details

Date: 25 April 2024
Orbit: 421 x 1170 km, 63.3° (Epoch: 18 May)

Event Time Altitude Azimuth Distance (km) Brightness Sun altitude
Rises 22:37:39 0° 312° (NW) 2,695 5.9 -23.0°
Reaches altitude 10° 22:40:04 10° 328° (NNW) 1,908 5.1 -23.1°
Maximum altitude 22:43:31 23° 21° (NNE) 1,407 3.9 -23.3°
Drops below altitude 10° 22:47:32 10° 73° (ENE) 2,267 4.4 -23.5°
Sets 22:50:42 0° 87° (E) 3,352 5.2 -23.6°
Enters shadow 22:50:43 - 88° (E) 3,359 5.2 -23.6°
